Regional Weather Roundup
Issued by NWS Grand Forks, ND

Home | Current Version | Previous Version | Graphics & Text | Print | Product List | Glossary On
Versions: 1 2 3 4 5 6 7 8 9 10 11 12 13 14 15 16 17 18 19 20 21 22 23 24 25 26 27 28 29 30 31 32 33 34 35 36 37 38 39 40 41 42 43 44 45 46 47 48 49 50
000
ASUS43 KFGF 040810
RWRFGF
PRAIRIE TO PINES  WEATHER ROUNDUP
NATIONAL WEATHER SERVICE EASTERN NORTH DAKOTA/GRAND FORKS ND
200 AM CST WED MAR 04 2015

 **SATELLITE DATA USED TO AUGMENT SKY COVER AT AUTOMATED STATIONS**
 *****  WEATHER ACROSS EASTERN NORTH DAKOTA  *****

CITY           SKY/WX    TMP DP  RH WIND       PRES   REMARKS
GRAND FORKS    CLEAR     -3 -12  65 NW10      30.05R WCI -20
GRAND FRKS AFB CLEAR     -3 -13  63 NW9       30.04R WCI -19
GRAND FRKS NWS   N/A     -4 N/A N/A NW5         N/A  WCI -15
DEVILS LAKE    CLEAR     -6 -15  65 NW14      30.01R WCI -26
FARGO          CLEAR     -2 -10  69 W10       30.08R WCI -19
WAHPETON ARPT  SUNNY     -2  -9  71 W9        30.10R WCI -18
$$

 ***** WEATHER ACROSS CENTRAL AND WESTERN NORTH DAKOTA  *****

CITY           SKY/WX    TMP DP  RH WIND       PRES   REMARKS
BISMARCK       MOCLDY     2  -3  80 W5        30.06F WCI  -8
MINOT          FAIR      -4 -12  68 W17       30.06R WCI -26
JAMESTOWN      CLEAR     -2 -11  65 W12       30.03R WCI -20
MINOT AFB      CLEAR     -7 -13  74 NW16      30.06R WCI -29
GARRISON         N/A     -3 -10  72 NW15      30.06R WCI -23
WILLISTON      PTCLDY    -6 -14  68 NW12      30.15R WCI -25
DICKINSON      CLEAR      1  -8  66 NW16G26   30.02R WCI -19
HETTINGER      MOCLDY     4  -3  73 NW12      30.05R WCI -12
$$

 *****  OTHER AIRPORT OBSERVATIONS IN OUR AREA  *****

CITY           SKY/WX    TMP DP  RH WIND       PRES   REMARKS
WALHALLA         N/A     -4 -13  65 NW12      30.04R WCI -22
GRAFTON AIRPOR NOT AVBL
VALLEY CITY AR FAIR      -2  -9  71 W10       30.04R WCI -19
CANDO          FAIR     N/A N/A N/A W9        30.02R
CAVALIER APRT  FAIR      -4 -11  71 NW13      30.04R WCI -23
GWINNER        SUNNY      1  -9  60 W12       30.09R WCI -15
SHEYENNE NWR     N/A     -5 -13  67 W5        29.95  WCI -16
ROLLA          PTSUNNY   -8 -17  65 NW17      29.98R WCI -31
 ***** THE ABOVE OBSERVATIONS ARE NON NWS ARE NOT QUALITY
       CONTROLLED AND MAY MIS-REPORT RAIN FOR SNOW...
$$

  *****  WEATHER ACROSS NORTHERN MINNESOTA  *****

CITY           SKY/WX    TMP DP  RH WIND       PRES   REMARKS
FLAG ISLAND    CLEAR    -11 -17  77 W7        29.93R WCI -26
WARROAD        CLEAR     -9 -15  77 W6        29.95R WCI -23
ROSEAU         CLEAR     -8 -13  77 W9        29.96R WCI -25
HALLOCK        NOT AVBL
THF RVR FALLS  CLEAR     -6  -9  84 W9        29.99R WCI -22
BAUDETTE       CLEAR    -10 -15  78 W8        29.91R WCI -26
WASKISH        CLEAR     -8 -11  84 W8        29.94R WCI -23
CROOKSTON      CLEAR     -2  -9  71 W10       30.05R WCI -19
$$
  *****  WEATHER ACROSS CENTRAL AND WEST MINNESOTA  *****

CITY           SKY/WX    TMP DP  RH WIND       PRES   REMARKS
FOSSTON        CLEAR     -9 -13  84 SW7       29.99R WCI -24
BEMIDJI        CLEAR     -6 -11  81 W8        29.95R HAZE    WCI -22
PARK RAPIDS    CLEAR     -6 -11  79 W8        29.96R WCI -21
ELBOW LAKE     FAIR      -4  -9  78 W13       30.06R WCI -23
WADENA         PTCLDY    -8 -13  77 W7        30.00R WCI -22
DETROIT LAKES  CLEAR      0  -8  71 NW14      30.01R WCI -19
MOORHEAD       CLEAR      0  -6  78 NW8       30.08R WCI -15
FERGUS FALLS   CLEAR     -6 -11  77 W8        30.11R WCI -21
MORRIS MN      CLEAR     -2  -9  71 W13       30.09R WCI -21
STAPLES        CLEAR     -9 -15  77 W8        30.01R WCI -26
$$
  *****  WEATHER ELSEWHERE ACROSS MINNESOTA  *****

CITY           SKY/WX    TMP DP  RH WIND       PRES   REMARKS
DULUTH         CLEAR     -2 -11  65 W14       29.88R WCI -21
INTRNTL FALLS  CLEAR     -7 -15  68 W8        29.90R WCI -23
ELY            CLEAR     -4  -9  77 W9        29.83R HAZE    WCI -20
CLOQUET        CLEAR     -2 -11  65 W12G20    29.92R WCI -20
WHEATON        CLEAR     -4 -11  71 W8        30.13R WCI -19
BRAINERD       CLEAR     -3  -9  75 W8        30.00R WCI -18
HIBBING        CLEAR     -5 -13  68 W9        29.90R WCI -22
ALEXANDRIA     CLEAR     -5 -11  75 W8        30.04R WCI -20
SAINT CLOUD    CLEAR      0  -8  69 W12       30.05R WCI -17
MINNEAPOLIS    PTCLDY     3  -7  63 W9        30.08R WCI -12
$$

  *****  WEATHER ACROSS SOUTH DAKOTA  *****

CITY           SKY/WX    TMP DP  RH WIND       PRES   REMARKS
SIOUX FALLS    PTCLDY     2  -3  80 SW3       30.15R
BROOKINGS      NOT AVBL
WATERTOWN      CLEAR     -2  -9  72 W8        30.08R WCI -17
HURON          CLEAR     -3  -7  82 SW3       30.16R
SISSETON         N/A      0  -9  65 NW10      30.10  WCI -16
ABERDEEN       CLEAR     -8 -13  78 SW7       30.13R WCI -23
MITCHELL       CLEAR      3  -1  83 W6        30.18R WCI  -8
PIERRE         CLEAR      3  -4  72 SW12      30.12S WCI -13
MOBRIDGE       CLOUDY     3  -3  76 CALM      30.04S
RAPID CITY     PTCLDY     2  -8  63 W5        30.07S WCI  -8
$$

  *****  SOME WEATHER IN NEARBY STATES *****

CITY           SKY/WX    TMP DP  RH WIND       PRES   REMARKS
GLASGOW MT     CLEAR      0  -8  69 NW9       30.18R WCI -15
GREAT FALLS MT CLOUDY    10   3  73 SW5       30.17S WCI   2
CHEYENNE WY    LGT SNOW   7   2  80 N10       29.93R WCI  -8
SCOTTSBLUFF NE CLOUDY    10   5  80 W7        30.09R WCI  -1
OMAHA NE       LGT SNOW  17   9  70 N15       30.20R WCI   2
DES MOINES IA  CLOUDY    15   3  59 N9        30.14R WCI   3
DAVENPORT IA   CLEAR     13   3  64 NW20      30.03R WCI  -5
CHICAGO IL     CLOUDY    29  21  72 W10       29.87S WCI  20
EAU CLAIRE WI  CLEAR      5  -5  63 W12       30.01R WCI -11
LA CROSSE WI   CLEAR     11   1  64 NW14      30.04R WCI  -5
$$

  *****  SOME NATIONAL WEATHER *****

CITY           SKY/WX    TMP DP  RH WIND       PRES   REMARKS
LA GUARDIA NY  CLOUDY    36  32  85 SW9G22    29.75F
RALEIGH NC     FOG       39  37  93 SW10      30.01F VSB 1/8
ATLANTA GA     FOG       50  49  96 SE5       30.06F VSB 1/16
NEW ORLEANS LA PTCLDY    67  64  90 S6        29.98F
OKLAHOMA CITY  CLOUDY    43  32  65 N16       29.92R
ALBUQUERQUE NM PTCLDY    39  27  62 N8        29.88S
SALT LAKE CITY MOCLDY    29  22  75 SE6       30.02R WCI  23
LOS ANGELES CA CLEAR     55  40  56 NE6       29.96R
BOISE ID       CLEAR     28  14  55 VRB3      30.13R
SEATTLE WA     PTCLDY    37  22  54 SE6       30.26R
$$

*** WEATHER ACROSS MANITOBA...SASKATCHEWAN AND ONTARIO ***
                ***ONTARIO***

CITY           SKY/WX    TMP DP  RH WIND       PRES   REMARKS
GERALDTON      PTCLDY    -4 -11  71 W10G24    29.58R WCI -21
THUNDER BAY    CLEAR      0 -11  60 W15G21    29.79R WCI -20
SIOUX LOOKOUT  CLEAR    -11 -20  64 W10       29.78R WCI -30
TORONTO        CLOUDY    32  25  74 W15G23    29.71R WCI  22
BIG TROUT LK   FLURRIES -13 -18  77 N9G20     29.70R WCI -31
PICKLE LAKE    NOT AVBL
DRYDEN         CLEAR    -13 -22  64 W13       29.81R WCI -34
KENORA         NOT AVBL
$$
                *** MANITOBA***

CITY           SKY/WX    TMP DP  RH WIND       PRES   REMARKS
BRANDON        CLEAR    -17 -24  70 NW12      30.05R WCI -38
DAUPHIN        CLEAR     -9 -20  59 NW10      30.08R WCI -28
ISLAND LAKE    FLURRIES -15 -20  76 N10G20    29.91R WCI -35
PILOT MOUND      N/A    -11 -17  77 NW13        N/A  WCI -32
THE PAS        CLEAR    -11 -18  70 NW12      30.13R WCI -31
THOMPSON       CLEAR    -18 -24  76 NW7       30.08R WCI -35
WINNIPEG       PTCLDY   -15 -24  64 NW12      30.04R WCI -36
LYNN LAKE      CLEAR    -20 -26  76 W8        30.11S WCI -39
CHURCHILL      CRYSTALS -20 -27  69 NW17      30.05S WCI -47
GILLAM         CLEAR    -20 -26  76 NW10      30.02R WCI -41
$$
                ***SASKATCHEWAN***

CITY           SKY/WX    TMP DP  RH WIND       PRES   REMARKS
ESTEVAN        CLEAR    -13 -20  70 NW15      30.10R WCI -36
KINDERSLEY     NOT AVBL
LLOYDMINSTER   CLEAR    -13 -22  64 NW3       30.21S
PRINCE ALBERT  CLEAR    -22 -29  69 W7        30.25R WCI -39
REGINA         NOT AVBL
YORKTON        CLEAR    -15 -24  64 NW14      30.10R WCI -38
N. BATTLEFORD  CLEAR    -18 -24  76 W3        30.28S
LA RONGE       CLEAR    -18 -26  69 W7        30.25R WCI -35
SASKATOON      CLEAR    -20 -27  69 NW10      30.27R WCI -41
SWIFT CURRENT  CLEAR    -11 -15  84 N8        30.13R WCI -28
$$
NOTE: THESE ARE AUTOMATED STATIONS WITH LIMITED QUALITY CONTROL
      "FAIR" INDICATES FEW OR NO CLOUDS BELOW 12,000 FEET WITH NO
      SIGNIFICANT WEATHER AND/OR OBSTRUCTIONS TO VISIBILITY.
      SKY/WX - SKY CONDITION AND SIGNIFICANT WEATHER.
      TMP - AIR TEMPERATURE.    DP   - DEWPOINT TEMPERATURE.
      RH  - RELATIVE HUMIDITY.  PRES - PRESSURE.
      HX  - HEAT INDEX.         WCI  - WIND CHILL INDEX.
$



USA.gov is the U.S. government's official web portal to all federal, state and local government web resources and services.